Etusivu
METAR-TAF:

METAR-TAF

Lentoasemat :

Opelousas, Louisiana, Yhdysvallat

Leveyspiiri: 30-33-30N, Pituuspiiri: 092-05-58W, korkeus merenpinnasta: 23 m

Tämänhetkinen sää

Tämä raportti tehtiin 21 minuuttia sitten, kello 16.55 UTC
tyyntä
Lämpötila 16°C
Kosteus 63%
Ilmanpaine 1015 hPa
Näkyvyys: 16.1 km
selkeää

METAR: KOPL 181655Z AUTO 00000KT 10SM CLR 16/09 A2998 RMK AO2 T01640089

Aika: 11:16 (17:16 UTC)


TAF: puuttuu

Säähavainnot ja -ennusteet yli 4000 lentoasemalta (METAR- ja TAF-raportit).

Käytössä olevat sääasemat on merkitty karttaan keltaisilla ja punaisilla pisteillä.

Aseta hiiri pisteen päälle nähdäksesi sääaseman nimen.

Klikkaa sitten nähdäksesi säähavainnot ja -ennusteet.

Kartan vaihtaminen: klikkaa mustalla rastilla varustettuja vihreitä pisteitä, niin voit zoomata sisään; viivalla varustettua vihreää pistettä, niin voit zoomata ulos tai vihreitä nuolia, niin pääset viereisille kartoille.


METAR-TAF: